Location: Bailleul
(50.3375°N, 2.8513°E)
Time: 18:18:11
(UTC+00:00)

Cosmos 1626 - Visible Passes

Search period start: 23 October 2021 00:00
Search period end: 02 November 2021 00:00
Orbit: 489 x 491 km, 82.5° (Epoch: 22 October)

Date Brightness Start Highest point End Pass type
(mag) Time Alt. Az. Time Alt. Az. Time Alt. Az.
23 Oct 3.8 04:04:58 10° SSE 04:08:21 34° E 04:11:43 10° NNE visible
23 Oct 3.4 05:40:47 10° WSW 05:43:38 21° WNW 05:46:31 10° NNW visible
24 Oct 4.4 03:42:27 10° SE 03:45:27 24° E 03:48:28 10° NE visible
24 Oct 2.9 05:17:17 10° SW 05:20:32 29° WNW 05:23:50 10° N visible
25 Oct 5.0 03:20:26 11° SE 03:22:36 17° E 03:25:03 10° NE visible
25 Oct 2.4 04:55:02 18° SW 04:57:29 41° WNW 05:01:01 10° N visible
26 Oct 5.3 02:59:13 12° E 02:59:47 12° E 03:01:13 10° ENE visible
26 Oct 2.0 04:33:48 51° SW 04:34:26 62° WNW 04:38:08 10° N visible
27 Oct 2.5 04:12:09 56° NNE 04:12:09 56° NNE 04:15:10 10° N visible
28 Oct 3.9 03:50:16 27° NNE 03:50:16 27° NNE 03:52:08 10° NNE visible
28 Oct 4.0 05:24:48 13° NW 05:24:48 13° NW 05:26:01 10° NNW visible
29 Oct 4.8 03:28:13 15° NNE 03:28:13 15° NNE 03:29:00 10° NNE visible
29 Oct 4.2 05:02:44 14° NNW 05:02:44 14° NNW 05:03:36 10° NNW visible
30 Oct 4.5 04:40:33 12° NNW 04:40:33 12° NNW 04:40:57 10° NNW visible
